Weather in Sosnovka

Russia / Chuvash Republic     56°11′20″N   47°13′11″E
temp.,
°C
wind,
m/s
gust,
m/s
humid.,
%
clouds,
%
prec.,
mm/h
press.,
hPa
HPBL,
m
12 april, mon
mon1200:000nne1198100 0.0 103511
03:00−1ne1198100 0.0 103625
06:000ene2598100 0.0 1038127
09:00+5ene3696100 0.0 1038257
12:00+10ene3577100 0.0 1038606
15:00+11e4674100 0.0 1038719
18:00+8e4991100 0.0 1037382
21:00+5e31098100 0.0 1038310
13 april, tue
tue1300:00+5ese3119592 0.0 1037278
03:00+4ese299598 0.0 1036188
06:00+5se2997100 0.0 1036186
09:00+11sse488076 0.0 1035356
12:00+15s466974 0.0 1034598
15:00+16s466378 0.0 1032904
18:00+13sse377949 0.0 1031167
21:00+9sse388850 0.0 1031133
14 april, wed
wed1400:00+8s37865 0.0 1031110
03:00+7s238811 0.0 103039
06:00+7s228034 0.0 103035
09:00+13sse355248 0.0 1029384
12:00+17s46385 0.0 1028930
15:00+18sse46375 0.0 10261115
18:00+14sse37595 0.0 1025179
21:00+10sse26794 0.0 1025114
15 april, thu
thu1500:00+9s24875 0.0 102471
03:00+8s22905 0.0 102315
06:00+8s11885 0.0 102221
09:00+14s23645 0.0 1022475
12:00+18s23515 0.0 10201321
15:00+19ssw234651 0.0 10191805
18:00+16wnw225997 0.0 101826
21:00+13wnw116388 0.0 101811
16 april, fri
fri1600:00+10nw117037 0.0 101812
03:00+9nw227644 0.0 101812
06:00+8nne258364 0.0 1019148
09:00+12nne466880 0.0 1020601
12:00+13nne565910 0.0 1021975
15:00+8ne687484 0.0 1023748
18:00+9ne38615 0.0 1024912
21:00+6nne412581 0.0 1026468